Regional Weather Roundup
Issued by NWS

Home | Current Version | Previous Version | Graphics & Text | Print | Product List | Glossary On
Versions: 1 2 3 4 5 6 7 8 9 10 11 12 13 14 15 16 17 18 19 20 21 22 23 24 25 26 27 28 29 30 31 32 33 34 35 36 37 38 39 40 41 42 43 44 45 46 47 48 49 50
000
ASUS43 KOAX 071602
RWRNE

WEATHER ROUNDUP FOR NEBRASKA
NATIONAL WEATHER SERVICE OMAHA NE
1100 AM CDT TUE JUL 07 2015

NOTES: SATELLITE DATA IS BEING USED TO AUGMENT CLOUD COVER ABOVE
       12000 FEET.
       "FAIR" INDICATES FEW OR NO CLOUDS BELOW 12,000 FEET WITH NO
       SIGNIFICANT WEATHER AND/OR OBSTRUCTIONS TO VISIBILITY.

  * THESE STATIONS DO NOT REPORT WEATHER SUCH AS RAIN...SNOW OR FOG.

NEZ001>004-019>022-054>056-071700-
NEBRASKA PANHANDLE

CITY           SKY/WX    TMP DP  RH WIND       PRES   REMARKS
SCOTTSBLUFF    CLOUDY    64  53  67 SE9       30.19F HAZE
ALLIANCE       PTSUNNY   65  55  70 S18       30.21F
CHADRON        PTSUNNY   68  56  65 S14       30.15F
KIMBALL          N/A    N/A N/A N/A MISG        N/A
SIDNEY         PTSUNNY   65  51  60 S18G25    30.23F
$$

NEZ057>060-069>072-079>082-071700-
SOUTHWEST NEBRASKA

CITY           SKY/WX    TMP DP  RH WIND       PRES   REMARKS
NORTH PLATTE   SUNNY     69  51  52 MISG      30.22F
IMPERIAL       MOSUNNY   69  50  50 SE12      30.23F
LEXINGTON      SUNNY     67  54  63 N3        30.21F
MCCOOK         MOSUNNY   68  54  60 MISG      30.22F HAZE
$$

NEZ005>010-023>029-035>040-094-071700-
NORTH CENTRAL NEBRASKA

CITY           SKY/WX    TMP DP  RH WIND       PRES   REMARKS
VALENTINE      MOSUNNY   69  55  60 SE12      30.19F
AINSWORTH      SUNNY     67  56  67 E8        30.21F HAZE
BROKEN BOW     MOSUNNY   67  55  65 SE7       30.21F HAZE
ORD            MOSUNNY   67  54  63 E6        30.20F
$$

NEZ041-046>049-061>064-073>077-083>087-071700-
SOUTH CENTRAL NEBRASKA

CITY           SKY/WX    TMP DP  RH WIND       PRES   REMARKS
GRAND ISLAND   SUNNY     64  53  67 NE7       30.21F
AURORA         SUNNY     64  53  67 NE10      30.19F
HASTINGS       SUNNY     65  53  65 NE8       30.19F
KEARNEY *      SUNNY     64  54  68 NE6       30.20F
$$

NEZ011>018-030>034-042>045-071700-
NORTHEAST NEBRASKA

CITY           SKY/WX    TMP DP  RH WIND       PRES   REMARKS
NORFOLK        SUNNY     66  50  56 NE10G17   30.20F
ALBION         SUNNY     65  50  58 NE8       30.21S
BLAIR          SUNNY     64  47  55 N16G22    30.16F
FREMONT        SUNNY     66  47  49 N10G16    30.17F
TEKAMAH        MOSUNNY   67  51  56 N13G20    30.17F
$$

NEZ050>053-065>068-078-088>093-071700-
SOUTHEAST NEBRASKA

CITY           SKY/WX    TMP DP  RH WIND       PRES   REMARKS
LINCOLN        SUNNY     67  49  52 NE17G25   30.17F
OMAHA EPPLEY   MOSUNNY   66  48  52 N20       30.15F
BEATRICE       SUNNY     65  50  58 NE13G18   30.15S
FALLS CITY       N/A     66  52  60 NE13      30.11F
NEBRASKA CITY  SUNNY     65  44  47 NE17G23   30.14S
PLATTSMOUTH    SUNNY     65  46  50 NE12G17   30.16S
$$

NEZ044-045-051>053-067-071700-
OMAHA AREA

CITY           SKY/WX    TMP DP  RH WIND       PRES   REMARKS
OMAHA EPPLEY   MOSUNNY   66  48  52 N20       30.15F
BLAIR          SUNNY     64  47  55 N16G22    30.16F
FREMONT        SUNNY     66  47  49 N10G16    30.17F
MILLARD        SUNNY     65  48  55 MISG      30.15F
OFFUTT AFB     SUNNY     66  49  53 N8        30.14F
PLATTSMOUTH    SUNNY     65  46  50 NE12G17   30.16S
WAHOO          FAIR      66  49  53 N17G23    30.16F
$$


USA.gov is the U.S. government's official web portal to all federal, state and local government web resources and services.